Location: Newark
(36.6333°N, 138.1833°E)
Time: 23:55:44
(UTC+00:00)

LightSail 2 - Visible Passes

Search period start: 19 February 2020 00:00
Search period end: 29 February 2020 00:00
Orbit: 700 x 722 km, 24.0° (Epoch: 19 February)

Date Brightness Start Highest point End Pass type
(mag) Time Alt. Az. Time Alt. Az. Time Alt. Az.
19 Feb 7.0 19:59:46 15° SSW 20:01:57 20° S 20:05:40 10° SE visible
20 Feb 7.2 19:04:40 18° SSE 19:04:40 18° SSE 19:07:04 10° SE visible
20 Feb 7.2 20:44:52 10° SW 20:48:11 17° S 20:51:32 10° SSE visible
21 Feb 6.9 19:48:28 17° SSW 19:49:38 19° S 19:53:12 10° SE visible
22 Feb 7.4 18:53:20 15° SSE 18:53:20 15° SSE 18:54:44 10° SE visible
22 Feb 7.3 20:33:14 10° SW 20:35:50 14° SSW 20:38:26 10° SSE visible
23 Feb 7.1 19:37:08 16° SSW 19:37:16 16° S 19:40:23 10° SSE visible
24 Feb 7.8 18:42:02 10° SE 18:42:02 10° SE 18:42:07 10° SE visible
25 Feb 7.4 19:25:53 12° S 19:25:53 12° S 19:26:59 10° S visible
